DW4212 Weather Reports


Display with metric or nautical units.
time (UTC)temp
F
wind
direction
speed
MPH
gust
MPH
rain 1hr
in
rain 24hr
in
rain mn
in
humidity
%
barometer
mb
20260503183943 59 256 0.0 0.0 0.00 0.94 0.19 67 1012.4
20260503182945 59 255 1.0 6.0 0.00 0.94 0.19 66 1012.4
20260503182033 59 196 0.0 11.0 0.00 0.94 0.19 65 1012.4
20260503180939 60 212 0.0 9.0 0.00 0.94 0.19 65 1012.4
20260503175946 60 192 0.0 7.0 0.00 0.94 0.19 64 1012.3
20260503174934 60 184 0.0 4.0 0.00 0.94 0.19 64 1012.1
20260503173943 61 192 0.0 7.0 0.00 0.94 0.19 63 1012.1
20260503172945 62 195 0.0 9.0 0.00 0.94 0.19 61 1012.2
20260503170942 62 254 1.0 10.0 0.00 0.94 0.19 60 1012.2
20260503150943 63 267 2.0 7.0 0.00 1.50 0.19 60 1012.2
20260503130914 62 234 4.0 13.0 0.00 1.54 0.19 64 1013.0
20260503080920 51 222 0.0 0.0 0.28 3.74 0.17 93 1015.1
20260503072921 49 222 0.0 0.0 0.47 4.09 0.17 93 1014.9
20260503071913 50 221 0.0 0.0 0.51 3.98 0.15 93 1014.9
20260503070920 51 221 0.0 0.0 0.51 3.78 0.11 93 1015.3
20260503054916 50 221 0.0 0.0 0.00 4.09 0.00 93 1014.8
20260503053925 50 221 0.0 0.0 0.00 4.09 0.00 93 1014.7
20260503052925 50 221 0.0 0.0 0.00 4.09 0.00 93 1014.7
20260503051919 50 221 0.0 0.0 0.00 4.09 0.00 93 1014.8
20260503050927 50 221 0.0 0.0 0.00 4.09 0.00 92 1014.8
20260503045930 50 221 0.0 0.0 0.00 4.09 0.00 92 1014.8
20260503044919 50 221 0.0 0.0 0.00 4.09 0.00 93 1014.9
20260503043912 50 221 0.0 0.0 0.00 4.09 0.00 93 1014.9
20260503042912 50 221 0.0 0.0 0.00 4.09 0.00 92 1014.9
20260503041922 49 221 0.0 0.0 0.00 4.09 0.00 92 1014.9
20260503040915 49 221 0.0 0.0 0.00 4.09 0.00 92 1015.0
20260503035916 49 221 0.0 0.0 0.00 4.09 0.00 92 1015.0
20260503034926 49 221 0.0 0.0 0.00 4.09 0.00 92 1015.2
20260503033914 49 221 0.0 0.0 0.00 4.09 0.00 92 1015.3
20260503032920 49 221 0.0 0.0 0.00 4.09 0.00 92 1015.4
20260503031929 49 221 0.0 0.0 0.00 4.09 0.00 92 1015.5
20260503030918 49 221 0.0 0.0 0.00 4.09 0.00 92 1015.4
20260503025920 49 221 0.0 0.0 0.00 4.09 0.00 92 1015.4
20260503024912 49 221 0.0 0.0 0.00 4.09 0.00 92 1015.4
20260503023920 50 221 0.0 0.0 0.00 4.09 0.00 92 1015.5
20260503022922 50 221 0.0 0.0 0.00 4.09 0.00 92 1015.7
20260503021912 50 221 0.0 0.0 0.00 4.09 0.00 92 1015.7
20260503020914 50 221 0.0 0.0 0.00 4.09 0.00 92 1015.7
20260503015916 50 221 0.0 0.0 0.00 4.09 0.00 92 1015.7
20260503014925 50 221 0.0 0.0 0.00 4.09 0.00 92 1015.8
20260503013915 50 221 0.0 0.0 0.00 4.09 0.00 92 1015.8
20260503012926 50 221 0.0 0.0 0.00 4.09 0.00 92 1015.8
20260503011914 50 221 0.0 0.0 0.00 4.09 0.00 91 1016.0
20260503010925 50 221 0.0 0.0 0.00 4.09 0.00 92 1016.0
20260503005926 50 221 0.0 0.0 0.00 4.09 0.00 91 1016.2
20260503004920 50 221 0.0 0.0 0.00 4.09 0.00 91 1016.2
20260503003930 50 221 0.0 0.0 0.00 4.09 0.00 91 1016.2
20260503002930 50 221 0.0 0.0 0.00 4.09 0.00 91 1016.2
20260503001919 50 221 0.0 0.0 0.00 4.09 0.00 91 1016.4
20260503000912 50 221 0.0 0.0 0.00 4.09 0.00 91 1016.4
20260502235915 50 221 0.0 0.0 0.00 4.09 0.82 91 1016.4
20260502234924 50 221 0.0 0.0 0.00 4.09 0.82 91 1016.8
20260502233913 51 221 0.0 0.0 0.00 4.09 0.82 90 1016.8
20260502232919 51 221 0.0 0.0 0.00 4.09 0.82 90 1016.9
20260502231929 51 221 0.0 0.0 0.00 4.09 0.82 90 1016.9
20260502230914 51 221 0.0 0.0 0.00 4.09 0.82 90 1016.9
20260502225917 51 221 0.0 0.0 0.00 4.09 0.82 90 1016.9
20260502224930 51 221 0.0 0.0 0.00 4.09 0.82 90 1016.9
20260502223919 51 221 0.0 0.0 0.00 4.09 0.82 90 1016.8
20260502222921 51 221 0.0 0.0 0.00 4.09 0.82 90 1016.8
20260502221914 51 221 0.0 0.0 0.00 4.09 0.82 90 1016.9
20260502220923 51 221 0.0 0.0 0.00 4.09 0.82 90 1017.0
20260502215925 51 221 0.0 0.0 0.00 4.09 0.82 89 1017.1
20260502214914 51 221 0.0 0.0 0.00 4.09 0.82 89 1017.2
20260502213928 51 221 0.0 0.0 0.00 4.09 0.82 89 1017.2
20260502212928 51 221 0.0 0.0 0.00 4.09 0.82 89 1017.2
20260502211958 51 221 0.0 0.0 0.00 4.09 0.82 89 1017.1
20260502210919 51 221 0.0 0.0 0.00 4.09 0.82 88 1017.1
20260502205921 52 221 0.0 0.0 0.00 4.09 0.82 88 1017.1
20260502204913 52 221 0.0 0.0 0.00 4.09 0.82 88 1016.9
20260502203920 53 221 0.0 0.0 0.00 4.09 0.82 88 1016.7
20260502202923 53 221 0.0 0.0 0.00 4.09 0.82 88 1016.5
20260502201929 53 221 0.0 0.0 0.00 4.09 0.82 88 1016.2
20260502200918 54 221 0.0 4.0 0.00 4.09 0.82 87 1016.2
20260502195920 54 219 0.0 3.0 0.00 4.09 0.82 87 1016.1
20260502194928 54 257 0.0 1.0 0.00 4.09 0.82 87 1016.0
20260502193918 54 257 0.0 0.0 0.00 4.09 0.82 87 1016.0
20260502192924 54 257 1.0 7.0 0.00 4.09 0.82 86 1016.1
20260502191914 54 257 0.0 4.0 0.00 4.09 0.82 86 1016.1
20260502190923 55 257 0.0 8.0 0.00 4.09 0.82 86 1015.8
20260502185922 55 244 0.0 2.0 0.00 4.09 0.82 86 1015.8
20260502184916 56 244 0.0 0.0 0.00 4.09 0.82 86 1015.9